Home   Weather   Leibnitz   Past weeks

Flag for Austria Past Weather in Leibnitz, Styria, Austria — Yesterday and Last 2 Weeks

Now
26 °F

Chilly.


Feels Like: N/A
Forecast: 31 / 48 °F
Wind: N/A

Location: Graz-Thalerhof-Flughafen

Current Time: Dec 11, 2016 at 1:13:26 am

Latest Report: Dec 11, 2016 at 12:00 am


Visibility: 4 mi

Pressure: 30.25 "Hg

Humidity: 95%

Dew Point: 25 °F

Location of LeibnitzLocation

Past Weather in Leibnitz — Graph

°F

Leibnitz Temperature Yesterday

Maximum temperature yesterday: 50 °F (at 3:00 pm)
Minimum temperature yesterday: 22 °F (at 6:00 am)
Average temperature yesterday: 32 °F

High & Low Weather Summary for the Past Weeks

 TemperatureHumidityPressure
High54 °F (Dec 2, 1:00 pm)99% (Nov 26, 7:00 am)30.75 "Hg (Nov 26, 7:00 am)
Low18 °F (Nov 30, 5:00 am)32% (Nov 28, 3:00 pm)29.88 "Hg (Dec 2, 12:00 pm)
Average32 °F83%30.33 "Hg
* Reported Nov 25 11:00 pm — Dec 10 11:00 pm, Leibnitz, Weather by CustomWeather, © 2016

Note: Actual official high and low records may vary slightly from our data, if they occured in-between our weather recording intervals... More about our weather records

Advertising

Leibnitz Weather History for the Previous 24 Hours

Scroll right to see more
 ConditionsComfort  
Time TempWeatherWind HumidityBarometerVisibility
11:00 pm
Sat, Dec 10
28 °FPassing clouds.N/A97%30.26 "Hg3 mi
10:00 pm27 °FPassing clouds.N/A93%30.27 "Hg6 mi
9:00 pm30 °FPassing clouds.N/A91%30.28 "Hg7 mi
8:00 pm30 °FPassing clouds.N/A92%30.29 "Hg7 mi
7:00 pm32 °FPassing clouds.No wind88%30.29 "Hg8 mi
6:00 pm37 °FPassing clouds.N/A80%30.29 "Hg9 mi
5:00 pm39 °FPassing clouds.N/A62%30.28 "Hg25 mi
4:00 pm45 °FPartly sunny.N/A53%30.27 "Hg28 mi
3:00 pm50 °FPartly sunny.N/A44%30.26 "Hg28 mi
2:00 pm49 °FPartly sunny.N/A49%30.27 "Hg19 mi
1:00 pm48 °FPartly sunny.N/A54%30.29 "Hg17 mi
12:00 pm43 °FPartly sunny.N/A66%30.33 "Hg19 mi
11:00 am40 °FPartly sunny.N/A73%30.35 "Hg9 mi
10:00 am34 °FPartly sunny.No wind91%30.39 "Hg7 mi
9:00 am28 °FPartly sunny.N/A91%30.40 "Hg4 mi
8:00 am22 °FPartly sunny.N/A94%30.43 "Hg4 mi
7:00 am22 °FPassing clouds.N/A94%30.43 "Hg5 mi
6:00 am22 °FCold.N/A94%30.42 "Hg3 mi
5:00 am22 °FCold.N/A95%30.42 "Hg4 mi
4:00 am24 °FCold.N/A96%30.43 "Hg3 mi
3:00 am23 °FCold.N/A97%30.44 "Hg2 mi
2:00 am24 °FIcy mix. Overcast.N/A96%30.45 "Hg1 mi
1:00 am24 °FCold.N/A96%30.47 "Hg2 mi
Weather by CustomWeather, © 2016

See weather overviewHow to use our weather pages